Previsão horária em Ploskie

Hoje, 9 Março, Terça-feira

Tempo Temperatura Precipitação Vento Pressão Humidade
00:00 -4°C° 0 mm 2 m/s 744 mmHg 83%
01:00 -4°C° 0 mm 2 m/s 744 mmHg 84%
02:00 -4°C° 0 mm 2 m/s 744 mmHg 83%
03:00 -4°C° 0 mm 2 m/s 744 mmHg 83%
04:00 -5°C° 0 mm 2 m/s 744 mmHg 83%
05:00 -5°C° 0 mm 2 m/s 744 mmHg 82%
06:00 -5°C° 0 mm 2 m/s 744 mmHg 80%
07:00 -5°C° 0 mm 2 m/s 745 mmHg 78%
08:00 -5°C° 0 mm 2 m/s 745 mmHg 76%
09:00 -4°C° 0 mm 2 m/s 745 mmHg 70%
10:00 -3°C° 0 mm 2 m/s 745 mmHg 63%
11:00 -2°C° 0 mm 2 m/s 745 mmHg 57%
12:00 -2°C° 0 mm 2 m/s 745 mmHg 53%
13:00 +1°C° 0 mm 1 m/s 745 mmHg 49%
14:00 +1°C° 0 mm 1 m/s 746 mmHg 46%
15:00 +1°C° 0 mm 1 m/s 745 mmHg 47%
16:00 +1°C° 0 mm 1 m/s 745 mmHg 48%
17:00 +1°C° 0 mm 1 m/s 745 mmHg 49%
18:00 -2°C° 0 mm 2 m/s 745 mmHg 54%
19:00 -3°C° 0 mm 2 m/s 745 mmHg 59%
20:00 -3°C° 0 mm 2 m/s 745 mmHg 65%
21:00 -4°C° 0 mm 2 m/s 745 mmHg 66%
22:00 -4°C° 0 mm 2 m/s 745 mmHg 67%
23:00 -4°C° 0 mm 2 m/s 746 mmHg 68%

Amanhã, 10 Março, Quarta-feira

Tempo Temperatura Precipitação Vento Pressão Humidade
00:00 -4°C° 0 mm 2 m/s 745 mmHg 68%
01:00 -4°C° 0 mm 2 m/s 745 mmHg 68%
02:00 -4°C° 0 mm 2 m/s 745 mmHg 69%
03:00 -4°C° 0 mm 2 m/s 745 mmHg 70%
04:00 -4°C° 0 mm 2 m/s 745 mmHg 71%
05:00 -3°C° 0 mm 1 m/s 744 mmHg 72%
06:00 -2°C° 0 mm 1 m/s 744 mmHg 72%
07:00 -2°C° 0 mm 1 m/s 744 mmHg 71%
08:00 -2°C° 0 mm 1 m/s 744 mmHg 70%
09:00 -1°C° 0 mm 1 m/s 745 mmHg 64%
10:00 -2°C° 0 mm 2 m/s 745 mmHg 57%
11:00 -1°C° 0 mm 2 m/s 745 mmHg 51%
12:00 +1°C° 0 mm 2 m/s 745 mmHg 48%
13:00 +1°C° 0 mm 2 m/s 745 mmHg 45%
14:00 +2°C° 0 mm 2 m/s 745 mmHg 42%
15:00 +1°C° 0 mm 2 m/s 745 mmHg 43%
16:00 +1°C° 0 mm 2 m/s 744 mmHg 44%
17:00 +1°C° 0 mm 2 m/s 744 mmHg 45%
18:00 -1°C° 0 mm 2 m/s 745 mmHg 51%
19:00 -2°C° 0 mm 2 m/s 745 mmHg 56%
20:00 -3°C° 0 mm 2 m/s 745 mmHg 61%
21:00 -1°C° 0 mm 1 m/s 745 mmHg 63%
22:00 -2°C° 0 mm 1 m/s 745 mmHg 66%
23:00 -2°C° 0 mm 1 m/s 745 mmHg 68%

Depois de amanhã, 11 Março, Quinta-feira

Tempo Temperatura Precipitação Vento Pressão Humidade
00:00 -2°C° 0 mm 1 m/s 745 mmHg 69%
01:00 -2°C° 0 mm 1 m/s 745 mmHg 71%
02:00 -3°C° 0 mm 0 m/s 746 mmHg 72%
03:00 -2°C° 0 mm 1 m/s 745 mmHg 74%
04:00 -2°C° 0 mm 1 m/s 745 mmHg 75%
05:00 -2°C° 0 mm 1 m/s 745 mmHg 76%
06:00 -2°C° 0 mm 1 m/s 745 mmHg 76%
07:00 -2°C° 0 mm 1 m/s 745 mmHg 77%
08:00 -1°C° 0 mm 1 m/s 745 mmHg 77%
09:00 -2°C° 0 mm 2 m/s 745 mmHg 69%
10:00 -1°C° 0 mm 2 m/s 745 mmHg 61%
11:00 +1°C° 0 mm 2 m/s 744 mmHg 53%
12:00 +1°C° 0 mm 3 m/s 744 mmHg 50%
13:00 +2°C° 0 mm 3 m/s 744 mmHg 48%
14:00 +1°C° 0 mm 4 m/s 743 mmHg 45%
15:00 +1°C° 0 mm 4 m/s 743 mmHg 50%
16:00 +1°C° 0 mm 4 m/s 742 mmHg 55%
17:00 0°C° 0 mm 4 m/s 741 mmHg 59%
18:00 0°C° 0 mm 5 m/s 741 mmHg 64%
19:00 -2°C° 0 mm 6 m/s 740 mmHg 70%
20:00 -3°C° 0 mm 6 m/s 740 mmHg 75%
21:00 -3°C° 0 mm 6 m/s 740 mmHg 76%
22:00 -2°C° 0 mm 6 m/s 739 mmHg 76%
23:00 -2°C° 0 mm 7 m/s 739 mmHg 76%

12 Março, Sexta-feira

Tempo Temperatura Precipitação Vento Pressão Humidade
00:00 -2°C° 0.5 mm 7 m/s 738 mmHg 83%
01:00 -2°C° 0.5 mm 7 m/s 737 mmHg 90%
02:00 -2°C° 0.5 mm 7 m/s 737 mmHg 96%
03:00 -2°C° 0.4 mm 7 m/s 736 mmHg 94%
04:00 -1°C° 0.4 mm 6 m/s 736 mmHg 92%
05:00 -1°C° 0.4 mm 6 m/s 735 mmHg 89%
06:00 -1°C° 0.8 mm 7 m/s 735 mmHg 91%
07:00 -1°C° 0.8 mm 7 m/s 736 mmHg 93%
08:00 -1°C° 0.8 mm 8 m/s 736 mmHg 94%
09:00 0°C° 0.2 mm 7 m/s 736 mmHg 91%
10:00 +2°C° 0.2 mm 7 m/s 736 mmHg 88%
11:00 +3°C° 0.2 mm 7 m/s 737 mmHg 86%
12:00 +4°C° 0.2 mm 8 m/s 737 mmHg 78%
13:00 +5°C° 0.2 mm 8 m/s 737 mmHg 70%
14:00 +6°C° 0.2 mm 9 m/s 737 mmHg 62%
15:00 +5°C° 0 mm 8 m/s 738 mmHg 64%
16:00 +5°C° 0 mm 7 m/s 738 mmHg 66%
17:00 +4°C° 0 mm 6 m/s 738 mmHg 69%
18:00 +3°C° 0 mm 5 m/s 738 mmHg 73%
19:00 +1°C° 0 mm 4 m/s 739 mmHg 78%
20:00 +2°C° 0 mm 2 m/s 739 mmHg 83%
21:00 +2°C° 0 mm 2 m/s 739 mmHg 83%
22:00 +1°C° 0 mm 2 m/s 739 mmHg 84%
23:00 +1°C° 0 mm 2 m/s 740 mmHg 84%

13 Março, Sábado

Tempo Temperatura Precipitação Vento Pressão Humidade
00:00 0°C° 0 mm 3 m/s 739 mmHg 85%
01:00 0°C° 0 mm 3 m/s 739 mmHg 86%
02:00 0°C° 0 mm 3 m/s 739 mmHg 87%
03:00 0°C° 0 mm 3 m/s 739 mmHg 88%
04:00 -1°C° 0 mm 4 m/s 739 mmHg 88%
05:00 -1°C° 0 mm 4 m/s 739 mmHg 89%
06:00 -1°C° 0 mm 4 m/s 738 mmHg 88%
07:00 0°C° 0 mm 4 m/s 738 mmHg 88%
08:00 0°C° 0 mm 4 m/s 738 mmHg 87%
09:00 +3°C° 0 mm 4 m/s 738 mmHg 80%
10:00 +5°C° 0 mm 5 m/s 738 mmHg 74%
11:00 +6°C° 0 mm 5 m/s 738 mmHg 67%
12:00 +5°C° 0.2 mm 6 m/s 738 mmHg 69%
13:00 +5°C° 0.2 mm 6 m/s 738 mmHg 71%
14:00 +5°C° 0.2 mm 7 m/s 738 mmHg 73%
15:00 +5°C° 0.4 mm 6 m/s 738 mmHg 74%
16:00 +6°C° 0.4 mm 5 m/s 738 mmHg 74%
17:00 +5°C° 0.4 mm 4 m/s 738 mmHg 75%
18:00 +4°C° 0 mm 4 m/s 738 mmHg 79%
19:00 +3°C° 0 mm 4 m/s 738 mmHg 83%
20:00 +1°C° 0 mm 4 m/s 738 mmHg 87%
21:00 +1°C° 0 mm 4 m/s 738 mmHg 87%
22:00 +1°C° 0 mm 4 m/s 738 mmHg 86%
23:00 +1°C° 0 mm 4 m/s 738 mmHg 86%

14 Março, Domingo

Tempo Temperatura Precipitação Vento Pressão Humidade
00:00 +1°C° 0 mm 4 m/s 737 mmHg 85%
01:00 +1°C° 0 mm 5 m/s 737 mmHg 85%
02:00 +1°C° 0 mm 5 m/s 737 mmHg 84%
03:00 +2°C° 0 mm 5 m/s 736 mmHg 85%
04:00 +2°C° 0 mm 5 m/s 736 mmHg 85%
05:00 +2°C° 0 mm 5 m/s 736 mmHg 85%
06:00 +2°C° 0 mm 5 m/s 735 mmHg 84%
07:00 +3°C° 0 mm 6 m/s 735 mmHg 83%
08:00 +3°C° 0 mm 7 m/s 735 mmHg 82%
09:00 +4°C° 0 mm 7 m/s 735 mmHg 76%
10:00 +6°C° 0 mm 7 m/s 735 mmHg 70%
11:00 +7°C° 0 mm 8 m/s 735 mmHg 64%
12:00 +7°C° 0 mm 8 m/s 734 mmHg 62%
13:00 +9°C° 0 mm 8 m/s 734 mmHg 59%
14:00 +10°C° 0 mm 8 m/s 733 mmHg 56%
15:00 +9°C° 0.1 mm 7 m/s 733 mmHg 63%
16:00 +8°C° 0.1 mm 6 m/s 733 mmHg 69%
17:00 +7°C° 0.1 mm 5 m/s 733 mmHg 76%
18:00 +6°C° 0.6 mm 4 m/s 733 mmHg 78%
19:00 +5°C° 0.6 mm 4 m/s 734 mmHg 81%
20:00 +5°C° 0.6 mm 3 m/s 734 mmHg 83%
21:00 +4°C° 0 mm 3 m/s 734 mmHg 82%
22:00 +5°C° 0 mm 2 m/s 735 mmHg 82%
23:00 +4°C° 0 mm 2 m/s 735 mmHg 81%
Mostrar mais

Necessitamos do seu Consentimento

A Meteoprog e os seus Fornecedores de Serviços podem armazenar e aceder a dados pessoais como cookies, identificadores do dispositivo ou outras tecnologias semelhantes existentes no seu dispositivo e processar estes dados para personalizar conteúdos e anúncios, assim como funcionalidades nas redes sociais e análise de tráfego.

  • Armazenar e/ou aceder a informações no seu dispositivo

    Os cookies, identificadores do dispositivo ou outras informações podem ser armazenados ou acedidos no seu dispositivo, para os fins acima indicados.

  • Anúncios e conteúdos personalizados, medição de anúncios e conteúdos, dados sobre o público-alvo e desenvolvimento de produtos

    Os anúncios e os conteúdos podem ser personalizados com base num perfil. Podem ser adicionados dados adicionais para uma maior personalização dos anúncios e dos conteúdos. A eficácia dos anúncios e dos conteúdos pode ser medida. Podem ser obtidas informações sobre o público que visualizou os anúncios e os conteúdos. Estes dados podem ser usados para desenvolver ou melhorar sistemas, softwares ou a experiência do utilizador.

Ao clicar em "Eu concordo”, permitirá o uso de cookies, identificadores do dispositivo e web beacons mencionados ou outras tecnologias semelhantes. As configurações do navegador do seu dispositivo podem ser alteradas.

Para certos fins, podem ser invocados interesses legítimos ao invés de consentimento. Pode ler mais informação sobre este assunto na nossa Política de Privacidade e Cookies.